Regional Weather Roundup
Issued by NWS Goodland, KS

Home | Current Version | Previous Version | Graphics & Text | Print | Product List | Glossary On
Versions: 1 2 3 4 5 6 7 8 9 10 11 12 13 14 15 16 17 18 19 20 21 22 23 24 25 26 27 28 29 30 31 32 33 34 35 36 37 38 39 40 41 42 43 44 45 46 47 48 49 50
000
ASUS43 KGLD 171208
RWRGLD

GOODLAND FORECAST AREA HOURLY WEATHER ROUNDUP
NATIONAL WEATHER SERVICE GOODLAND KS
500 AM MST WED DEC 17 2014

...OFFICIAL OBSERVATIONS...

CITY           SKY/WX    TMP DP  RH WIND       PRES   REMARKS
GOODLAND KS    CLOUDY    22  22 100 E10       30.08F FOG     WCI  11
HILL CITY KS   CLOUDY    22  20  92 E10       30.21R WCI  11
IMPERIAL NEB   CLOUDY    21  19  92 SE12      30.12S FOG     WCI   9
MCCOOK NEB     CLOUDY    21  19  92 E10       30.18F WCI  10
AKRON CO       FOG       17  16  95 S12       30.01R VSB 1/2 WCI   4
BURLINGTON CO  CLOUDY    23  21  92 E7        30.03F FOG
LIMON CO       CLOUDY    14  11  87 N3        29.97F
$$

...UNOFFICIAL OBSERVATIONS...

CITY           SKY/WX    TMP DP  RH WIND       PRES   REMARKS
GOVE KS          N/A     25  32 100 MISG        N/A
SHARON SPRINGS   N/A     24  22  93 NE5         N/A
TRIBUNE KS     MOCLDY    25  25 100 NE7       30.06S
KIT CARSON CO    N/A     22  20  91 MISG        N/A
YUMA CO          N/A     19  17  90 CALM        N/A
$$


USA.gov is the U.S. government's official web portal to all federal, state and local government web resources and services.